Fort Sill, OK

9:26 PM CDT on April 29, 2017 (GMT -0500)
Post Army Air Field

Weather History for KFSI - February, 2014

Change the Weather History Date:

Thursday, February 20, 2014

  Actual Average Record
Temperature  
Mean Temperature 52 °F -  
Max Temperature 61 °F 62 °F 85 °F (1976)
Min Temperature 40 °F 33 °F 9 °F (1978)
Degree Days  
Heating Degree Days 14    
Growing Degree Days 2 (Base 50)    
Moisture  
Dew Point 31 °F    
Average Humidity 47    
Maximum Humidity 92    
Minimum Humidity 17    
Precipitation  
Precipitation 0.00 in - - ()
Sea Level Pressure  
Sea Level Pressure 29.82 in    
Wind  
Wind Speed 17 mph (NW)    
Max Wind Speed 40 mph    
Max Gust Speed 54 mph    
Visibility 10 miles    
Events      
Averages and records for this station are not official NWS values.
T = Trace of Precipitation, MM = Missing Value Source: NWS Daily Summary

Daily Weather History Graph

Daily Weather History Graph

Search for Another Location

Airport or City:

Trip Planner

Search our weather history database for the weather conditions in past years. The results will help you decide how hot, cold, wet, or windy it might be!

Date:

Astronomy

Feb. 20, 2014 Rise Set
Actual Time 7:13 AM CST 6:21 PM CST
Civil Twilight 6:47 AM CST 6:47 PM CST
Nautical Twilight 6:18 AM CST 7:16 PM CST
Astronomical Twilight 5:49 AM CST 7:45 PM CST
Moon No Moon Rise 10:12 AM CST (2/20)
Length of Visible Light 11h 59m
Length of Day
11h 07m
Waning Gibbous, 70% of the Moon is Illuminated
Feb 20
Waning Gibbous
Feb 22
Last Quarter
Mar 1
New
Mar 8
First Quarter
Mar 16
Full

Hourly Weather History & Observations

Time (CST) Temp. Windchill Dew Point Humidity Pressure Visibility Wind Dir Wind Speed Gust Speed Precip Events Conditions
12:58 AM 60.3 °F - 57.9 °F 92% 29.48 in 10.0 mi South 9.2 mph - N/A   Clear
1:58 AM 61.0 °F - 58.1 °F 90% 29.47 in 10.0 mi South 9.2 mph - N/A   Clear
2:58 AM 61.3 °F - 58.8 °F 91% 29.44 in 10.0 mi SSW 12.7 mph - N/A   Clear
3:58 AM 61.7 °F - 57.7 °F 87% 29.44 in 10.0 mi SSW 12.7 mph - N/A   Clear
4:58 AM 61.2 °F - 56.1 °F 83% 29.47 in 10.0 mi SW 11.5 mph - N/A   Clear
5:58 AM 59.4 °F - 52.3 °F 78% 29.52 in 10.0 mi West 10.4 mph - N/A   Clear
6:58 AM 54.5 °F - 46.0 °F 73% 29.57 in 10.0 mi West 11.5 mph - N/A   Clear
7:58 AM 51.8 °F - 36.7 °F 56% 29.70 in 4.0 mi NW 26.5 mph 39.1 mph N/A   Widespread Dust
8:58 AM 49.6 °F - 33.4 °F 54% 29.78 in 10.0 mi NW 21.9 mph 34.5 mph N/A   Clear
9:58 AM 50.4 °F - 32.4 °F 50% 29.83 in 10.0 mi NNW 25.3 mph 38.0 mph N/A   Clear
10:17 AM 51.8 °F - 30.2 °F 44% 29.83 in 10.0 mi North 35.7 mph 51.8 mph N/A   Squalls
10:19 AM 51.8 °F - 30.2 °F 44% 29.83 in 10.0 mi North 40.3 mph 51.8 mph N/A   Squalls
10:25 AM 51.8 °F - 28.4 °F 41% 29.84 in 10.0 mi North 35.7 mph 54.1 mph N/A   Squalls
10:40 AM 51.8 °F - 28.4 °F 41% 29.85 in 10.0 mi North 33.4 mph 49.5 mph N/A   Squalls
10:58 AM 52.0 °F - 30.0 °F 43% 29.87 in 10.0 mi North 29.9 mph 44.9 mph N/A   Clear
11:58 AM 52.9 °F - 30.4 °F 42% 29.88 in 10.0 mi North 31.1 mph 44.9 mph N/A   Clear
12:20 PM 53.6 °F - 30.2 °F 41% 29.89 in 10.0 mi North 33.4 mph 43.7 mph N/A   Squalls
12:58 PM 55.0 °F - 30.6 °F 39% 29.91 in 10.0 mi NNW 26.5 mph 38.0 mph N/A   Clear
1:58 PM 55.9 °F - 26.2 °F 32% 29.92 in 10.0 mi North 26.5 mph 36.8 mph N/A   Clear
2:58 PM 58.1 °F - 22.5 °F 25% 29.94 in 10.0 mi NNW 16.1 mph 25.3 mph N/A   Clear
3:58 PM 57.7 °F - 18.3 °F 22% 29.97 in 10.0 mi NNW 15.0 mph 25.3 mph N/A   Clear
4:58 PM 57.6 °F - 14.5 °F 18% 29.99 in 10.0 mi NNW 13.8 mph 26.5 mph N/A   Clear
5:58 PM 55.8 °F - 10.8 °F 17% 30.01 in 10.0 mi NNW 12.7 mph 24.2 mph N/A   Clear
6:58 PM 52.2 °F - 11.8 °F 20% 30.03 in 10.0 mi NNW 9.2 mph - N/A   Clear
7:58 PM 48.9 °F - 13.3 °F 24% 30.06 in 10.0 mi NNW 9.2 mph - N/A   Clear
8:58 PM 46.9 °F - 12.7 °F 25% 30.09 in 10.0 mi NNW 6.9 mph - N/A   Clear
9:58 PM 44.2 °F 41.0 °F 12.7 °F 28% 30.09 in 10.0 mi North 5.8 mph - N/A   Clear
10:58 PM 42.3 °F 39.4 °F 12.0 °F 29% 30.09 in 10.0 mi North 4.6 mph - N/A   Clear
11:58 PM 40.8 °F - 12.6 °F 32% 30.09 in 10.0 mi Calm Calm - N/A   Clear